Flag for Japan Weather past 2 weeks in Yokohama, Japan

Now
91 °F

Passing clouds.


Feels Like: 105 °F
Forecast: 81 / 93 °F
Wind: 20 mph from South

Location: Tokyo International Airport

Current Time: Aug 4, 2015 at 1:09:09 PM

Latest Report: Aug 4, 2015 at 12:30 PM


Visibility: N/A

Pressure: 29.80 "Hg

Humidity: 63%

Dew point: 77 °F

Location of YokohamaLocation

Historic Weather in Yokohama — Graph

°F

Yokohama temperature yesterday

Maximum temperature yesterday: 91 °F (at 11:30 AM)
Minimum temperature yesterday: 81 °F (at 1:30 AM)
Average temperature yesterday: 85 °F

Past Weeks' High & Low Weather Summary

 TemperatureHumidityPressure
High95 °F (Jul 26, 2:30 PM)94% (Jul 23, 9:00 AM)29.92 "Hg (Jul 23, 9:00 AM)
Low77 °F (Jul 23, 10:30 PM)52% (Jul 21, 1:30 PM)29.65 "Hg (Jul 27, 4:30 PM)
Average84 °F77%29.80 "Hg
* Reported Jul 20 11:00 AM — Aug 4 11:30 AM, Yokohama, Weather by CustomWeather, © 2015

Note: Actual official high and low records may vary slightly from our data, if they occured in-between our weather recording intervals... More about our weather records

Advertising

Yokohama weather history for previous 24 hours

 ConditionsComfort  
Time TempWeatherWind HumidityBarometerVisibility
11:30 AM
Tue, Aug 4
90 °FPassing clouds.17 mph67%29.80 "Hg5 mi
11:00 AM90 °FPassing clouds.18 mph67%29.80 "Hg5 mi
10:30 AM90 °FPassing clouds.16 mph67%29.83 "Hg5 mi
10:00 AM88 °FPassing clouds.16 mph70%29.83 "Hg4 mi
9:30 AM88 °FPassing clouds.14 mph70%29.83 "Hg4 mi
9:00 AM88 °FPassing clouds.13 mph75%29.83 "Hg4 mi
8:30 AM88 °FPassing clouds.12 mph75%29.83 "Hg4 mi
8:00 AM88 °FPassing clouds.5 mph70%29.83 "Hg4 mi
7:30 AM86 °FPassing clouds.6 mph75%29.83 "Hg4 mi
7:00 AM84 °FPassing clouds.8 mph79%29.83 "Hg4 mi
6:30 AM82 °FPassing clouds.9 mph79%29.83 "Hg4 mi
6:00 AM82 °FPassing clouds.8 mph84%29.83 "Hg4 mi
5:30 AM82 °FPassing clouds.8 mph84%29.83 "Hg4 mi
5:00 AM81 °FPassing clouds.7 mph89%29.83 "Hg5 mi
4:30 AM82 °FClear.9 mph79%29.83 "Hg5 mi
4:00 AM82 °FClear.8 mph79%29.83 "Hg10 mi
3:30 AM82 °FClear.9 mph79%29.83 "Hg10 mi
3:00 AM82 °FClear.10 mph79%29.83 "Hg10 mi
2:30 AM82 °FClear.10 mph84%29.83 "Hg10 mi
2:00 AM82 °FClear.10 mph84%29.83 "Hg10 mi
1:30 AM82 °FClear.14 mph84%29.80 "Hg10 mi
1:00 AM82 °FClear.15 mph84%29.83 "Hg10 mi
12:30 AM82 °FClear.13 mph84%29.83 "Hg10 mi
12:00 AM82 °FClear.15 mph84%29.83 "Hg10 mi
11:30 PM
Mon, Aug 3
82 °FClear.14 mph84%29.83 "Hg10 mi
11:00 PM82 °FClear.13 mph84%29.86 "Hg10 mi
10:30 PM82 °FClear.12 mph84%29.86 "Hg10 mi
10:00 PM82 °FClear.13 mph84%29.86 "Hg10 mi
9:30 PM82 °FClear.14 mph84%29.86 "Hg10 mi
9:00 PM82 °FClear.17 mph84%29.86 "Hg10 mi
8:30 PM82 °FClear.16 mph84%29.86 "Hg10 mi
8:00 PM84 °FClear.17 mph79%29.83 "Hg10 mi
7:30 PM84 °FPassing clouds.15 mph84%29.83 "HgN/A
7:00 PM84 °FPassing clouds.17 mph79%29.83 "HgN/A
6:30 PM84 °FPassing clouds.18 mph79%29.83 "HgN/A
6:00 PM86 °FPassing clouds.20 mph75%29.83 "HgN/A
5:30 PM86 °FPassing clouds.20 mph70%29.83 "HgN/A
5:00 PM88 °FPassing clouds.18 mph70%29.83 "HgN/A
4:30 PM88 °FPassing clouds.23 mph70%29.83 "HgN/A
4:00 PM88 °FPassing clouds.22 mph70%29.83 "HgN/A
3:30 PM90 °FPassing clouds.22 mph67%29.83 "HgN/A
3:00 PM90 °FPassing clouds.23 mph67%29.83 "HgN/A
2:30 PM91 °FPassing clouds.22 mph59%29.83 "HgN/A
1:30 PM91 °FPassing clouds.20 mph59%29.83 "HgN/A
Weather by CustomWeather, © 2015

See weather overviewHow to use our weather pages